Location: Berlise
(49.6641°N, 4.1077°E)
Time: 02:16:43
(UTC+00:00)

GEOS 3 Rocket - Pass Details

Date: 27 January 2021
Orbit: 771 x 848 km, 115.0° (Epoch: 28 February)

Event Time Altitude Azimuth Distance (km) Brightness Sun altitude
Rises 04:37:00 0° 119° (ESE) 3,384 7.7 -26.7°
Reaches altitude 10° 04:39:21 10° 115° (ESE) 2,459 6.9 -26.3°
Maximum altitude 04:44:33 54° 39° (NE) 1,030 4.3 -25.5°
Enters shadow 04:46:51 32° 340° (NNW) 1,427 4.7 -25.1°
